Location: Ambrosina
(19.9365°S, 43.9833°W)
Time: 13:36:53
(UTC+00:00)

Daily predictions for brighter satellites

Satellite Brightness Start Highest point End
(mag) Time Altitude Azimuth Time Altitude Azimuth Time Altitude Azimuth
IUS-9 SRM-1 3.4 20:39:30 10° W 20:42:05 51° NNW 20:50:39 10° ENE
CZ-4B DEB 4.3 20:42:50 10° SSE 20:48:17 62° ENE 20:53:39 10° N
Cosmos 2333 Rocket 4.3 20:44:58 10° NW 20:49:39 27° WSW 20:54:22 10° SSW
deb Chang Zheng 4 4.4 20:50:25 10° S 20:54:42 56° WSW 20:58:56 10° NNW
Cosmos 968 Rocket 3.5 20:52:17 10° S 20:57:30 61° ESE 21:02:41 10° NNE
IRIDIUM 104 4.4 20:54:26 10° S 20:59:35 55° E 21:04:41 10° NNE
SWIFT 2.3 20:55:59 10° W 21:00:12 88° S 21:04:16 11° E
Sakura Rocket 3.9 20:57:31 10° W 21:01:03 42° NNW 21:05:12 10° NE
Cosmos 2151 4.3 20:58:50 10° NE 21:01:51 19° E 21:04:54 10° SE
CZ-4B R/B 1.8 20:59:34 10° N 21:02:33 59° W 21:05:34 10° SSW
NOSS 3-3 (A) 3.6 20:59:57 10° SSW 21:05:44 85° ESE 21:11:09 10° NNE
NOSS 3-3 (C) 3.7 21:00:01 10° SSW 21:05:50 84° ESE 21:11:16 10° NNE
Cosmos 405 Rocket 2.6 21:02:32 10° N 21:06:12 87° W 21:09:57 10° S
Cosmos 1633 3.5 21:04:34 10° NNE 21:07:31 25° E 21:10:29 10° SE
IRIDIUM 114 4.3 21:03:30 10° S 21:08:45 71° E 21:13:56 10° N
DMSP B5D1-3 4.5 21:04:35 10° NNE 21:09:40 79° ESE 21:14:50 10° S
Cosmos 2237 Rocket 2.2 21:04:22 10° NNW 21:10:00 89° ENE 21:15:43 10° SSE
AQUARIUS 4.1 21:06:22 10° SSE 21:10:54 87° E 21:15:23 10° NNW
Cosmos 1825 3.8 21:09:34 10° NNW 21:13:05 37° W 21:16:37 10° SSW
CZ-4 R/B 3.6 21:16:11 11° ENE 21:16:11 11° ENE 21:16:35 10° ENE
ISS -3.8 21:13:57 10° SW 21:17:20 85° SE 21:20:41 10° NE
IRIDIUM 103 4.3 21:12:35 10° S 21:17:52 90° E 21:23:05 10° N
Spot 2 4.5 21:14:01 10° SSE 21:19:11 69° ENE 21:24:14 10° N
Cosmos 1486 Rocket 4.0 21:14:00 10° S 21:19:18 80° ESE 21:24:36 10° NNE
ATLAS 3B R/B 4.0 21:13:51 10° NW 21:20:56 45° WSW 21:28:02 10° S
Meteor 2-3 Rocket 4.5 21:18:00 10° NNE 21:22:46 30° E 21:27:34 10° SSE
ARIANE 5 R/B 4.0 21:22:39 10° NW 21:24:34 11° NNW 21:25:58 10° N
EPKM 1.7 21:24:32 10° WNW 21:28:46 85° SSW 21:29:23 41° ESE
Cosmos 1655 Rocket 4.4 21:25:58 10° NNE 21:31:41 39° E 21:37:29 10° SSE
Meteor 2-15 Rocket 4.4 21:28:14 10° S 21:34:16 60° E 21:40:14 10° NNE
Cosmos 1809 Rocket 4.4 21:32:45 10° N 21:38:54 72° E 21:45:06 10° S
Cosmos 1842 Rocket 3.5 21:35:36 10° S 21:40:05 88° W 21:44:32 10° N
FUSE 4.2 21:35:21 10° NW 21:40:35 55° NNE 21:43:03 29° E
Cosmos 1606 3.1 21:41:33 38° E 21:41:33 38° E 21:44:46 10° NNE
Atlas Centaur 2 3.5 21:35:53 10° WSW 21:41:27 34° S 21:44:57 23° SE
H-2A R/B 2.5 21:39:14 10° S 21:43:04 68° WSW 21:46:53 10° NNW
Cosmos 2278 Rocket 3.1 21:41:11 10° S 21:45:13 28° SE 21:45:13 28° SE
Aurora 2 Rocket 2.7 21:44:24 10° W 21:49:01 49° SSW 21:49:52 41° SSE
GPS 2-12 Rocket1 3.7 21:46:00 10° WNW 21:50:38 47° NNE 21:52:07 35° ENE
CZ-4B R/B 3.8 21:46:19 10° S 21:51:31 55° WSW 21:56:40 10° NNW
CZ-2C R/B 3.5 21:47:32 10° S 21:52:12 55° WSW 21:56:51 10° NNW
GPS 2-14 Rocket1 2.3 21:52:04 10° W 21:55:52 84° N 21:56:11 74° ENE
Hubble Space Telescope 1.4 21:52:25 10° NW 21:56:20 41° NNE 21:56:36 40° NE
CZ-2C R/B 4.2 21:54:50 10° WNW 21:56:57 13° NW 21:59:01 10° N
Cosmos 1689 Rocket 4.2 21:56:02 10° NNW 21:58:28 27° W 22:00:58 10° SW
GPS 2-15 Rocket1 4.0 21:54:18 10° W 21:59:02 45° NNW 22:01:03 29° NE
BREEZE-M DEB (TANK) 4.0 21:58:10 10° W 22:00:38 29° SSW 22:01:19 26° S
H-2A R/B 1.8 21:58:58 35° SSE 22:01:00 65° E 22:05:53 10° N
Cosmos 1763 Rocket 4.0 21:56:31 10° N 22:00:42 39° ENE 22:00:42 39° ENE
CZ-2D R/B 4.3 21:58:15 10° S 22:02:01 46° WSW 22:05:44 10° NNW
Cosmos 2221 4.1 22:03:01 10° SSW 22:06:56 34° W 22:10:48 10° NNW
SJ-11-01 4.4 22:07:32 56° NE 22:07:32 56° NE 22:11:47 10° N
Meteor 2-16 Rocket 4.3 22:05:33 10° N 22:11:35 69° E 22:14:17 35° SSE
Meteor 2-21 Rocket 4.4 22:09:57 10° N 22:16:09 86° W 22:22:14 11° S
ERS-2 3.7 22:12:58 10° NNW 22:16:17 34° W 22:19:39 10° SSW
Cosmos 468 Rocket 4.0 22:15:58 10° N 22:20:36 66° NNE 22:20:36 66° NNE
SL-16 R/B 2.5 22:15:56 10° NNW 22:21:30 63° WSW 22:24:04 32° S
Okean O Rocket 4.0 22:18:53 10° SSW 22:22:15 21° WSW 22:25:37 10° WNW
CZ-3B R/B 4.4 22:03:12 10° WSW 22:23:44 69° NNW 22:28:47 32° NE
Palapa 6 Rocket 4.3 22:27:15 10° NW 22:32:55 46° N 22:32:55 46° N
Cosmos 2266 Rocket 4.4 22:31:33 10° NNW 22:37:26 57° W 22:41:45 19° SSW
SWIFT 4.3 22:37:56 10° W 22:39:52 26° W 22:39:52 26° W
CZ-4 R/B 3.8 22:52:12 21° WNW 22:52:12 21° WNW 22:53:55 10° NW
S3M 4.4 22:47:10 10° SSW 22:53:30 63° W 22:59:47 10° N
ARGOS 4.5 23:01:08 35° WNW 23:01:08 35° WNW 23:04:34 10° NNW
Maqsat-H 4.4 23:12:00 10° WNW 23:19:51 24° NNW 23:19:51 24° NNW
Atlas Centaur 2 4.4 23:24:57 10° WSW 23:27:32 24° SW 23:27:32 24° SW
